Weather History for Cheyenne, WY

Change the Weather History Date:

Friday, November 30, 2012

  Actual Average Record
Temperature  
Mean Temperature 44 °F 30 °F  
Max Temperature 56 °F 40 °F 66 °F (1883)
Min Temperature 32 °F 19 °F -14 °F (1983)
Degree Days  
Heating Degree Days 21 35  
Month to date heating degree days 739 889  
Since 1 July heating degree days 1541 1748  
Cooling Degree Days 0 0  
Month to date cooling degree days 0 0  
Year to date cooling degree days 568 348  
Moisture  
Dew Point 18 °F    
Average Humidity 36    
Maximum Humidity 48    
Minimum Humidity 24    
Precipitation  
Precipitation 0.00 in 0.02 in 0.21 in (1986)
Month to date precipitation 0.02 0.59  
Year to date precipitation 9.58 15.45  
Snow  
Snow 0.00 in 0.30 in 2.60 in (1986)
Month to date snowfall 0.4 8.0  
Since 1 July snowfall 10.6 14.3  
Snow Depth 0.00 in    
Sea Level Pressure  
Sea Level Pressure 29.88 in    
Wind  
Wind Speed 8 mph (SW)    
Max Wind Speed 16 mph    
Max Gust Speed 20 mph    
Visibility 10 miles    
Events      
T = Trace of Precipitation, MM = Missing Value Source: NWS Daily Summary

Daily Weather History Graph

Daily Weather History Graph

Search for Another Location

Airport:

Trip Planner

Search our weather history database for the weather conditions in past years. The results will help you decide how hot, cold, wet, or windy it might be!

Date:

Astronomy

Nov. 30, 2012 Rise Set
Actual Time 7:04 AM MST 4:31 PM MST
Civil Twilight 6:34 AM MST 5:01 PM MST
Nautical Twilight 5:59 AM MST 5:36 PM MST
Astronomical Twilight 5:26 AM MST 6:09 PM MST
Moon 6:28 PM MST (11/30) 8:38 AM MST (11/30)
Length of Visible Light 10h 27m
Length of Day
9h 26m
Waning Gibbous, 96% of the Moon is Illuminated
Nov 30
Waning Gibbous
Dec 6
Last Quarter
Dec 13
New
Dec 19
First Quarter
Dec 28
Full

Hourly Weather History & Observations

Time (MST) Temp. Windchill Dew Point Humidity Pressure Visibility Wind Dir Wind Speed Gust Speed Precip Events Conditions
12:53 AM 39.9 °F 35.8 °F 19.0 °F 43% 29.96 in 10.0 mi WSW 5.8 mph - N/A   Clear
1:53 AM 39.9 °F 37.8 °F 19.9 °F 45% 29.96 in 10.0 mi West 3.5 mph - N/A   Clear
2:53 AM 42.1 °F 35.2 °F 19.9 °F 41% 29.96 in 10.0 mi SW 12.7 mph - N/A   Overcast
3:53 AM 41.0 °F 34.3 °F 19.0 °F 41% 29.96 in 10.0 mi SW 11.5 mph - N/A   Partly Cloudy
4:53 AM 39.9 °F 33.9 °F 19.0 °F 43% 29.96 in 10.0 mi SW 9.2 mph - N/A   Clear
5:53 AM 39.0 °F 34.8 °F 19.0 °F 45% 29.97 in 10.0 mi SSW 5.8 mph - N/A   Clear
6:53 AM 37.0 °F 32.4 °F 19.0 °F 48% 30.00 in 10.0 mi WSW 5.8 mph - N/A   Clear
7:53 AM 37.0 °F 33.3 °F 19.0 °F 48% 30.00 in 10.0 mi North 4.6 mph - N/A   Clear
8:53 AM 46.0 °F 39.9 °F 18.0 °F 33% 29.96 in 10.0 mi SW 13.8 mph - N/A   Clear
9:53 AM 50.0 °F - 18.0 °F 28% 29.94 in 10.0 mi East 5.8 mph - N/A   Clear
10:53 AM 52.0 °F - 18.0 °F 26% 29.89 in 10.0 mi South 9.2 mph - N/A   Clear
11:53 AM 54.0 °F - 18.0 °F 24% 29.83 in 10.0 mi South 11.5 mph - N/A   Clear
12:53 PM 54.0 °F - 18.0 °F 24% 29.82 in 10.0 mi SSW 13.8 mph - N/A   Clear
1:53 PM 54.0 °F - 17.1 °F 23% 29.79 in 10.0 mi SSW 12.7 mph - N/A   Clear
2:53 PM 54.0 °F - 18.0 °F 24% 29.78 in 10.0 mi South 12.7 mph - N/A   Clear
3:53 PM 51.1 °F - 18.0 °F 27% 29.79 in 10.0 mi SSW 12.7 mph - N/A   Clear
4:53 PM 46.9 °F - 18.0 °F 32% 29.80 in 10.0 mi SW 10.4 mph - N/A   Clear
5:53 PM 45.0 °F 43.5 °F 18.0 °F 34% 29.84 in 10.0 mi West 3.5 mph - N/A   Clear
6:53 PM 44.1 °F - 19.0 °F 37% 29.84 in 10.0 mi Calm Calm - N/A   Clear
7:53 PM 37.9 °F 31.5 °F 18.0 °F 45% 29.86 in 10.0 mi WNW 9.2 mph - N/A   Clear
8:53 PM 39.0 °F 33.4 °F 18.0 °F 43% 29.81 in 10.0 mi South 8.1 mph - N/A   Clear
9:53 PM 39.9 °F 36.7 °F 18.0 °F 41% 29.78 in 10.0 mi NW 4.6 mph - N/A   Clear
10:53 PM 37.9 °F - 19.0 °F 47% 29.79 in 10.0 mi Calm Calm - N/A   Clear
11:53 PM 41.0 °F 39.0 °F 19.0 °F 41% 29.77 in 10.0 mi NW 3.5 mph - N/A   Clear